Theta_e
299 298 298 297 297 297 296 295 295 294 293 292 291 291 290 290 289 288 288 288 287 287 286 285 284 283 283 283 283 283 282 281 282 284 283 283 282 281 281 281 281 280 280
298 297 297 297 297 296 296 295 294 293 292 291 291 290 290 289 289 288 288 288 287 287 286 286 284 284 283 283 283 283 282 282 281 282 282 282 282 281 280 280 280 280 279
297 297 297 297 296 296 295 295 294 293 291 291 290 290 289 289 289 288 288 288 287 287 286 286 285 284 283 283 282 282 282 282 281 281 281 281 280 279 279 279 278 278 278
297 297 297 297 296 295 294 294 293 292 291 290 290 289 289 288 288 288 288 287 287 287 287 286 286 285 284 282 282 282 281 281 280 280 280 279 278 278 277 276 277 277 276
296 296 297 296 295 294 294 293 291 291 290 289 289 289 288 288 288 288 287 287 287 287 286 286 285 285 284 282 281 281 280 280 279 279 278 278 277 276 276 276 275 276 276
296 296 295 295 294 294 293 292 291 290 289 289 289 288 288 288 288 287 287 287 287 287 286 286 285 285 284 282 281 280 279 279 278 277 277 276 276 275 275 275 275 275 277
296 295 295 294 294 294 293 291 291 290 289 289 289 288 288 287 287 287 287 286 286 286 286 286 285 285 283 281 280 279 279 278 277 277 276 275 275 275 275 275 275 275 275
296 295 294 294 293 293 292 292 290 289 289 289 288 288 287 287 287 287 286 286 286 285 285 285 285 284 282 280 280 279 279 278 277 276 275 275 274 274 274 273 273 273 273
296 296 295 294 293 293 293 292 290 289 289 288 288 287 287 287 287 286 286 286 285 285 285 285 284 284 281 280 279 279 278 277 277 275 275 275 274 274 274 273 273 271 272
296 296 295 295 295 295 294 292 291 290 289 288 287 288 288 288 287 286 285 285 285 285 284 284 284 283 281 279 278 277 277 277 276 276 275 275 274 274 274 273 272 270 271
297 296 296 296 295 294 293 293 291 290 289 288 288 288 288 287 286 286 285 284 284 284 284 284 283 282 280 279 277 277 276 275 274 274 274 274 274 274 274 273 272 271 270
297 296 294 293 293 294 293 292 291 290 289 289 288 288 288 287 287 285 285 284 284 284 284 283 283 282 280 278 277 276 276 274 274 273 273 274 274 273 273 273 272 272 272
293 292 292 293 291 290 290 289 289 289 288 288 288 288 288 287 286 285 284 284 283 282 282 282 281 280 276 276 276 275 275 274 273 273 273 273 273 272 272 272 273 272 272
291 291 291 290 290 290 289 289 288 288 288 288 288 287 287 285 284 284 283 282 281 281 281 280 279 277 276 276 276 275 274 273 272 272 272 272 272 272 272 271 271 272 272
291 291 290 290 290 289 289 289 288 288 288 287 286 285 284 284 284 283 283 282 281 280 280 279 278 277 276 276 275 274 273 272 272 271 271 271 271 271 271 271 271 271 271
290 290 290 289 289 289 288 288 288 288 287 286 285 284 284 284 283 283 282 281 277 277 277 277 276 276 275 275 274 274 273 272 271 271 271 270 270 270 270 270 270 270 271
290 289 289 288 288 288 288 287 287 286 285 284 283 283 283 282 280 276 276 276 276 276 276 276 277 276 276 274 274 273 272 271 271 270 270 270 269 269 269 270 269 270 270
290 290 289 288 287 287 287 286 285 284 283 282 282 283 281 280 278 277 274 273 274 274 274 274 275 275 274 273 272 272 271 270 270 270 269 269 269 268 269 269 269 269 269
289 289 289 288 287 286 285 284 283 283 283 282 281 279 278 276 275 274 272 272 271 271 271 271 271 271 271 271 271 270 270 270 269 269 269 269 268 268 269 269 269 269 269
289 288 287 286 285 284 283 283 282 281 280 278 276 275 275 275 274 273 272 270 269 269 269 268 268 268 269 269 269 269 269 269 269 268 268 268 268 268 268 268 268 269 269
286 285 284 283 283 282 281 280 279 277 276 275 275 274 273 272 272 270 269 268 267 266 266 266 266 266 267 267 267 268 268 268 268 267 267 267 267 268 268 268 268 268 269
283 282 282 281 281 279 278 277 276 275 274 274 273 272 272 271 269 268 268 267 266 266 265 265 265 265 266 266 267 267 267 268 268 266 266 267 267 267 268 268 268 268 268
281 280 279 278 277 276 276 275 274 273 273 272 272 271 270 269 268 268 267 266 266 266 265 265 265 265 266 266 266 266 267 267 266 266 266 266 267 267 268 268 268 268 268
278 277 276 275 275 275 274 273 272 272 271 271 270 269 268 268 268 267 267 266 266 266 265 265 265 266 266 266 266 266 267 266 266 266 266 266 267 267 267 268 268 268 267
274 274 274 274 273 272 272 272 271 271 270 269 268 268 268 268 268 267 267 266 266 266 266 266 266 266 266 266 266 266 266 266 266 266 266 266 267 267 267 267 267 268 268
274 274 273 272 271 271 270 270 269 268 268 267 267 267 267 267 267 266 266 266 266 266 266 266 266 266 266 266 265 265 265 265 266 265 265 266 267 267 267 267 268 267 268
Wind_Speed
34 31 29 27 25 22 20 17 15 13 12 11 9 6 5 3 3 5 7 8 9 11 13 14 15 16 17 18 19 20 21 23 30 40 40 42 46 48 47 44 44 43 41
35 32 30 27 26 24 21 19 18 16 15 13 10 9 7 4 4 5 6 8 10 12 14 15 17 18 20 21 22 23 25 26 30 37 41 42 44 46 46 45 42 41 41
37 34 32 30 28 25 23 22 20 18 17 15 13 11 10 6 5 6 7 8 11 13 15 16 18 21 22 24 24 25 26 27 29 34 41 43 46 46 46 45 45 44 43
39 37 34 33 29 26 25 23 21 20 19 17 16 15 12 9 8 9 9 11 12 14 16 18 20 22 24 26 27 27 28 29 31 34 39 44 46 46 45 44 48 46 47
41 38 36 32 29 28 26 25 23 22 21 20 19 18 15 13 12 13 13 13 15 16 18 19 21 23 24 26 28 28 29 30 31 33 38 42 43 39 42 43 42 47 47
42 40 37 33 32 30 28 27 25 24 24 23 22 20 18 17 16 17 17 18 19 19 21 22 23 24 25 26 27 28 28 27 28 30 35 36 41 38 40 42 45 44 42
43 41 38 35 33 31 30 28 27 27 26 25 24 23 21 19 20 20 20 21 23 22 24 25 26 26 26 27 27 28 27 26 22 25 34 37 40 39 39 42 41 43 42
43 42 39 37 34 33 31 29 28 28 27 27 26 24 23 22 23 23 24 25 25 25 25 26 28 27 26 27 29 29 29 30 31 32 34 34 32 35 37 37 37 39 40
39 40 38 37 34 32 32 30 30 28 28 28 26 25 24 24 25 25 26 27 26 26 28 28 29 29 27 27 28 28 30 32 32 34 32 30 33 33 32 32 33 30 35
32 32 33 31 29 29 29 28 26 27 26 25 25 24 25 26 27 27 27 28 28 28 29 30 30 29 29 26 24 26 31 34 35 36 33 31 30 30 28 26 28 28 32
24 25 26 26 26 24 23 24 24 25 25 25 25 25 25 26 28 27 27 29 30 31 32 32 31 30 30 27 20 25 31 29 34 33 32 31 29 28 27 27 27 28 30
20 20 22 22 21 21 21 22 23 24 25 25 25 26 26 27 27 27 28 29 30 33 33 32 31 31 31 25 20 27 28 32 32 30 29 29 28 28 28 28 29 28 26
19 20 20 20 20 19 20 20 22 23 24 26 28 29 29 28 27 27 29 29 29 31 32 33 33 31 23 23 28 30 30 31 29 29 27 26 27 28 29 29 29 30 29
17 18 19 21 20 19 19 20 22 24 26 28 30 31 29 27 26 26 27 28 30 31 31 31 31 29 27 27 31 28 31 29 27 26 26 26 26 27 28 28 30 32 33
18 20 23 24 23 22 22 22 23 24 26 28 29 28 28 29 27 29 30 30 31 30 30 33 33 31 30 29 30 31 31 27 25 24 25 25 26 27 27 27 28 30 32
19 21 25 26 25 24 24 24 25 27 29 30 29 28 26 28 28 29 29 30 25 25 30 35 39 35 33 31 34 35 31 26 24 24 24 24 25 26 27 26 26 28 30
18 20 23 26 27 27 27 28 28 28 27 24 22 22 23 24 24 19 20 23 25 26 31 36 40 40 38 35 36 34 31 25 24 23 23 23 23 23 24 24 26 27 29
19 20 21 23 26 27 27 26 25 21 19 18 21 23 24 26 27 27 23 24 31 32 34 37 39 38 37 38 34 33 28 25 23 23 22 22 21 21 22 21 24 26 28
19 20 21 22 23 23 21 19 18 17 18 20 21 21 23 25 27 28 28 28 31 34 36 37 33 31 32 32 33 30 28 24 23 22 21 20 19 20 19 19 22 22 25
20 21 21 20 18 17 16 15 16 17 19 19 20 23 24 27 28 29 27 27 26 27 29 31 32 32 32 32 31 27 26 23 21 21 19 19 17 17 17 18 19 22 23
18 18 17 15 14 14 15 16 17 17 18 19 20 21 22 25 26 26 26 24 23 23 23 20 18 19 22 24 24 24 24 22 20 19 18 18 16 16 14 15 17 18 21
15 14 14 14 14 14 15 16 16 17 18 18 19 19 20 20 20 21 21 20 20 20 20 22 22 24 23 21 20 22 23 22 18 17 19 17 16 15 13 14 14 15 18
13 13 13 13 14 14 14 15 16 16 17 17 18 18 17 17 17 17 17 17 17 16 17 18 20 21 20 19 20 22 23 20 17 18 18 17 16 14 13 13 13 13 15
12 12 12 12 13 13 14 14 15 16 16 16 16 15 15 16 16 16 16 16 16 16 15 17 18 19 19 20 19 20 20 20 19 18 19 18 16 14 14 13 12 11 12
10 10 11 11 12 13 14 14 15 15 15 15 14 15 15 16 16 15 15 16 16 16 15 17 18 18 19 19 19 18 19 20 19 18 18 18 17 15 14 14 12 10 10
10 11 12 12 12 13 13 13 13 13 14 15 15 16 17 17 17 16 16 17 18 17 18 17 17 17 18 18 18 18 18 18 17 17 18 18 18 17 16 15 13 12 12
Wind_Direction
197 198 199 199 200 201 200 201 205 209 211 212 209 211 220 245 322 350 352 344 340 331 326 319 314 313 312 314 313 314 316 316 314 317 322 324 323 326 327 326 325 324 324
201 202 202 205 206 204 204 207 211 214 216 216 217 221 227 245 296 329 336 339 335 332 325 318 313 312 309 310 310 312 313 313 313 314 317 321 323 325 326 327 326 323 324
204 206 207 209 210 209 210 213 214 216 218 220 225 231 234 249 276 294 314 320 323 322 322 318 315 312 309 306 306 307 307 308 310 312 315 320 324 327 328 326 327 325 324
208 210 212 213 213 214 216 217 219 220 223 227 230 236 239 249 262 279 291 302 305 308 314 317 315 309 305 304 303 304 305 309 312 313 317 322 324 327 327 325 322 322 322
213 215 217 216 216 217 220 222 222 223 227 230 237 239 243 254 265 275 282 286 290 296 302 308 309 307 304 302 303 305 306 310 312 316 318 321 322 318 319 318 311 313 316
219 221 220 218 220 222 225 227 226 229 231 236 242 242 250 259 267 275 280 281 283 288 296 302 306 308 304 301 301 303 305 307 311 312 319 310 309 312 311 311 314 312 312
225 225 223 223 224 228 230 230 232 235 236 242 245 247 256 263 271 278 279 279 280 283 290 299 305 307 303 301 300 301 302 304 306 305 303 308 307 317 318 313 306 301 303
230 228 227 227 228 231 233 237 238 237 241 247 248 254 260 268 274 277 278 277 280 284 290 298 301 301 301 299 300 302 305 310 311 311 308 307 312 307 307 307 306 304 303
231 230 229 229 231 234 237 239 239 240 245 247 252 259 267 272 274 275 274 276 279 284 289 294 297 299 300 298 299 302 302 301 307 305 305 308 313 315 314 315 318 317 312
231 232 229 231 233 239 241 242 243 246 248 250 255 263 270 274 272 272 272 276 280 284 287 290 293 297 299 298 291 294 292 298 305 308 313 312 314 315 318 322 327 319 308
229 227 227 230 235 238 240 240 242 245 248 252 259 264 269 272 272 271 271 275 280 283 285 289 293 295 294 292 284 277 282 299 298 302 307 311 313 317 322 329 329 322 314
221 220 221 225 228 227 228 231 235 241 248 253 257 260 264 269 274 275 274 275 278 282 285 289 292 293 293 290 277 268 278 294 299 300 304 308 313 320 324 327 327 327 321
209 216 220 219 217 220 230 238 242 245 250 254 257 262 268 270 274 276 277 277 278 279 285 290 293 295 284 273 276 282 287 298 295 296 301 308 313 318 321 322 325 329 325
217 222 222 223 226 233 239 242 247 251 255 260 264 267 271 273 273 275 278 278 279 282 287 289 287 279 277 278 286 289 297 298 291 296 301 306 310 315 318 324 328 330 328
230 230 229 231 235 240 244 248 252 257 261 263 264 263 265 270 275 276 281 283 283 284 287 287 284 279 280 283 283 288 295 292 288 291 296 303 309 313 316 323 328 330 330
236 238 239 241 244 248 252 255 259 262 265 266 265 265 267 274 279 283 285 288 284 285 291 290 288 285 284 285 285 289 293 289 287 290 296 303 308 311 315 321 328 331 331
249 248 246 247 249 253 257 260 262 263 265 265 266 270 278 283 284 283 279 276 276 272 267 267 272 274 275 278 283 287 290 286 285 290 297 303 305 307 312 319 328 331 333
256 258 259 257 255 255 258 260 261 260 260 264 270 277 280 282 284 285 283 287 281 276 269 268 268 272 276 280 280 286 286 282 283 289 295 299 301 304 310 319 327 332 334
259 259 257 255 254 255 256 256 258 263 268 271 273 276 282 286 287 288 287 284 282 278 273 271 271 273 272 274 280 282 279 278 283 289 293 295 298 300 306 317 326 331 333
256 256 255 253 252 253 255 259 265 270 273 278 285 291 295 296 295 295 296 295 291 285 280 278 275 273 274 276 279 277 273 275 282 287 290 290 292 296 303 316 327 330 335
253 250 249 247 247 252 259 265 269 274 281 287 293 296 298 298 304 306 308 306 300 294 291 288 285 283 284 280 275 270 271 277 282 286 284 285 290 292 295 311 324 330 335
245 243 244 249 256 259 263 267 275 282 288 292 293 295 296 302 306 307 306 305 302 297 293 286 284 287 289 283 275 273 276 279 282 281 280 283 285 288 289 305 320 328 340
243 247 251 255 258 263 271 277 282 286 288 289 292 297 302 307 307 307 306 304 299 295 292 286 283 283 282 278 277 278 278 279 280 277 279 279 281 285 282 297 314 325 343
247 248 250 257 265 271 276 280 281 283 286 290 295 300 302 302 304 305 305 304 302 297 294 289 286 285 284 282 279 276 277 279 278 277 277 276 279 283 279 286 301 311 333
246 253 264 271 274 275 278 282 286 289 291 293 293 294 295 297 301 303 305 303 302 299 296 291 288 288 286 284 281 279 277 277 277 276 275 274 274 279 280 278 290 290 310
254 265 269 271 277 281 284 286 287 288 290 290 292 294 296 298 300 302 304 303 301 301 299 296 292 290 287 285 283 280 278 276 275 275 274 273 272 276 278 272 276 282 289